GW4987 Weather Reports


Display with metric or nautical units.
time (UTC)temp
F
wind
direction
speed
MPH
gust
MPH
rain 1hr
in
rain 24hr
in
rain mn
in
humidity
%
barometer
mb
20260506045046 45 247 3.0 3.0 0.00 0.00 0.00 51 1016.1
20260506044510 45 247 3.0 3.0 0.00 0.00 0.00 51 1016.3
20260506044009 45 247 3.0 3.0 0.00 0.00 0.00 51 1016.0
20260506043546 45 256 3.0 3.0 0.00 0.00 0.00 51 1016.1
20260506043009 45 237 3.0 3.0 0.00 0.00 0.00 51 1016.1
20260506042546 45 230 3.0 5.0 0.00 0.00 0.00 51 1016.0
20260506042047 45 212 3.0 4.0 0.00 0.00 0.00 52 1016.0
20260506041547 45 231 3.0 3.0 0.00 0.00 0.00 52 1015.8
20260506035510 46 260 3.0 4.0 0.00 0.00 0.00 51 1016.0
20260506035010 46 252 3.0 4.0 0.00 0.00 0.00 50 1015.9
20260506034547 46 228 4.0 4.0 0.00 0.00 0.00 50 1015.7
20260506034047 46 210 3.0 3.0 0.00 0.00 0.00 50 1015.8
20260506033547 46 253 3.0 3.0 0.00 0.00 0.00 50 1015.7
20260506033047 46 220 2.0 2.0 0.00 0.00 0.00 50 1015.6
20260506031046 46 224 3.0 6.0 0.00 0.00 0.00 50 1015.3
20260506030510 47 199 3.0 4.0 0.00 0.00 0.00 49 1015.3
20260506030010 47 191 3.0 4.0 0.00 0.00 0.00 49 1015.2
20260506025546 47 174 3.0 3.0 0.00 0.00 0.00 49 1015.3
20260506025010 47 176 3.0 5.0 0.00 0.00 0.00 48 1015.0
20260506024547 47 216 5.0 7.0 0.00 0.00 0.00 48 1015.0
20260506024046 48 195 2.0 5.0 0.00 0.00 0.00 47 1014.7
20260506023547 49 224 9.0 10.0 0.00 0.00 0.00 44 1014.7
20260506023010 49 224 9.0 10.0 0.00 0.00 0.00 44 1014.6
20260506022547 49 224 9.0 10.0 0.00 0.00 0.00 44 1014.6
20260506022047 49 224 9.0 10.0 0.00 0.00 0.00 44 1014.6
20260506021509 49 224 9.0 10.0 0.00 0.00 0.00 44 1014.3
20260506021009 49 224 9.0 10.0 0.00 0.00 0.00 44 1014.3
20260506020546 52 226 7.0 11.0 0.00 0.00 0.00 41 1014.4
20260506020009 52 226 7.0 11.0 0.00 0.00 0.00 41 1014.3
20260506015546 52 226 7.0 11.0 0.00 0.00 0.00 41 1014.2
20260506015047 52 226 7.0 11.0 0.00 0.00 0.00 41 1014.1
20260506014546 52 226 7.0 11.0 0.00 0.00 0.00 41 1014.0
20260506014009 52 226 7.0 11.0 0.00 0.00 0.00 41 1014.1
20260506013546 52 226 7.0 11.0 0.00 0.00 0.00 41 1014.0
20260506010546 53 217 4.0 5.0 0.00 0.00 0.00 40 1013.9
20260506010046 53 217 4.0 5.0 0.00 0.00 0.00 40 1013.8
20260506005547 53 217 4.0 5.0 0.00 0.00 0.00 40 1013.9
20260506005046 53 217 4.0 5.0 0.00 0.00 0.00 40 1013.9
20260506004546 53 217 4.0 5.0 0.00 0.00 0.00 40 1013.9
20260506004047 53 217 4.0 5.0 0.00 0.00 0.00 40 1013.8
20260506003547 53 217 4.0 5.0 0.00 0.00 0.00 40 1013.9
20260506003010 53 217 4.0 5.0 0.00 0.00 0.00 40 1013.7
20260506002547 53 217 4.0 5.0 0.00 0.00 0.00 40 1013.8
20260506002046 53 217 4.0 5.0 0.00 0.00 0.00 40 1013.8
20260506001546 53 217 4.0 5.0 0.00 0.00 0.00 40 1013.5
20260506001047 53 217 4.0 5.0 0.00 0.00 0.00 40 1013.5
20260506000547 53 235 11.0 18.0 0.00 0.00 0.00 40 1013.6
20260506000010 52 202 14.0 20.0 0.00 0.00 0.00 40 1013.4
20260505235547 53 218 9.0 16.0 0.00 0.00 0.00 39 1013.5
20260505235047 52 206 11.0 19.0 0.00 0.00 0.00 40 1013.5
20260505234510 53 178 13.0 20.0 0.00 0.00 0.00 39 1013.4
20260505234010 53 205 17.0 21.0 0.00 0.00 0.00 39 1013.5
20260505233547 54 150 8.0 10.0 0.00 0.00 0.00 39 1013.1
20260505233010 53 217 12.0 23.0 0.00 0.00 0.00 40 1013.2
20260505232546 53 214 4.0 21.0 0.00 0.00 0.00 40 1013.0
20260505232046 54 213 5.0 18.0 0.00 0.00 0.00 39 1013.1
20260505231546 54 223 7.0 13.0 0.00 0.00 0.00 38 1013.1
20260505231010 54 208 11.0 28.0 0.00 0.00 0.00 37 1013.0
20260505230547 55 211 16.0 17.0 0.00 0.00 0.00 34 1013.0
20260505230047 55 211 16.0 17.0 0.00 0.00 0.00 34 1013.0
20260505224047 57 188 13.0 22.0 0.00 0.00 0.00 33 1013.1
20260505223547 57 188 13.0 22.0 0.00 0.00 0.00 33 1013.3
20260505223047 54 225 10.0 11.0 0.00 0.00 0.00 35 1013.1
20260505222547 55 195 14.0 26.0 0.00 0.00 0.00 34 1013.5
20260505222011 55 264 18.0 19.0 0.00 0.00 0.00 34 1013.4
20260505221547 56 196 15.0 26.0 0.00 0.00 0.00 32 1013.3
20260505221047 57 217 6.0 12.0 0.00 0.00 0.00 33 1013.4
20260505220511 56 200 16.0 20.0 0.00 0.00 0.00 33 1013.6
20260505214546 56 214 13.0 14.0 0.00 0.00 0.00 36 1013.6
20260505214046 56 214 13.0 14.0 0.00 0.00 0.00 36 1013.6
20260505213547 56 214 13.0 14.0 0.00 0.00 0.00 36 1013.3
20260505213011 56 214 13.0 14.0 0.00 0.00 0.00 36 1013.8
20260505212546 55 196 13.0 19.0 0.00 0.00 0.00 38 1013.8
20260505212046 55 196 13.0 19.0 0.00 0.00 0.00 38 1013.8
20260505211511 57 189 6.0 13.0 0.00 0.00 0.00 39 1013.9
20260505211010 56 223 9.0 10.0 0.00 0.00 0.00 41 1013.8
20260505210546 56 223 12.0 17.0 0.00 0.00 0.00 41 1013.8
20260505210046 53 170 8.0 11.0 0.00 0.00 0.00 48 1013.8
20260505205546 53 170 8.0 11.0 0.00 0.00 0.00 48 1013.9
20260505205046 53 171 8.0 18.0 0.00 0.00 0.00 49 1014.0
20260505204546 54 174 14.0 25.0 0.00 0.00 0.00 47 1013.8
20260505204010 56 221 14.0 18.0 0.00 0.00 0.00 45 1013.9
20260505203547 54 200 16.0 19.0 0.00 0.00 0.00 47 1013.8
20260505202010 52 128 5.0 14.0 0.00 0.00 0.00 46 1014.2
20260505201547 52 128 5.0 14.0 0.00 0.00 0.00 46 1014.2
20260505201011 52 128 5.0 14.0 0.00 0.00 0.00 46 1014.2
20260505195011 52 128 5.0 14.0 0.00 0.00 0.00 46 1014.4
20260505194546 52 128 5.0 14.0 0.00 0.00 0.00 46 1014.4
20260505194046 52 128 5.0 14.0 0.00 0.00 0.00 46 1014.3
20260505192046 52 173 13.0 19.0 0.00 0.00 0.00 46 1014.6
20260505191546 52 171 15.0 15.0 0.00 0.00 0.00 49 1014.4
20260505191047 53 221 9.0 16.0 0.00 0.00 0.00 50 1014.5
20260505185047 51 262 10.0 11.0 0.00 0.00 0.00 57 1014.5
20260505184511 51 262 10.0 11.0 0.00 0.00 0.00 57 1014.4
20260505184047 51 193 11.0 13.0 0.00 0.00 0.00 54 1014.4
20260505183546 51 193 11.0 13.0 0.00 0.00 0.00 54 1014.5
20260505183010 53 222 10.0 12.0 0.00 0.00 0.00 50 1014.6
20260505182546 53 222 10.0 16.0 0.00 0.00 0.00 50 1014.3
20260505182046 54 132 4.0 11.0 0.00 0.00 0.00 48 1014.3
20260505181547 54 179 5.0 11.0 0.00 0.00 0.00 48 1014.3
20260505175546 52 141 12.0 14.0 0.00 0.00 0.00 51 1014.3
20260505175010 53 213 6.0 21.0 0.00 0.00 0.00 50 1014.2
20260505174547 54 157 9.0 18.0 0.00 0.00 0.00 47 1014.2
20260505174011 53 153 11.0 21.0 0.00 0.00 0.00 50 1014.3
20260505173547 53 170 12.0 15.0 0.00 0.00 0.00 51 1014.3
20260505173047 50 203 14.0 18.0 0.00 0.00 0.00 55 1014.2
20260505171546 51 135 10.0 16.0 0.00 0.00 0.00 51 1014.2
20260505171046 51 121 9.0 15.0 0.00 0.00 0.00 52 1014.2
20260505170547 54 196 16.0 19.0 0.00 0.00 0.00 49 1014.2
20260505170011 54 137 5.0 13.0 0.00 0.00 0.00 50 1014.1
20260505165503 55 164 13.0 13.0 0.00 0.00 0.00 47 1014.1
20260505165046 53 164 5.0 8.0 0.00 0.00 0.00 52 1014.0
20260505164546 55 175 13.0 17.0 0.00 0.00 0.00 49 1014.1
20260505164047 53 129 13.0 17.0 0.00 0.00 0.00 51 1014.1
20260505163547 55 139 9.0 18.0 0.00 0.00 0.00 48 1014.2
20260505163010 52 163 7.0 9.0 0.00 0.00 0.00 54 1014.1
20260505162547 51 144 5.0 14.0 0.00 0.00 0.00 55 1014.1
20260505162046 50 134 5.0 18.0 0.00 0.00 0.00 56 1014.1
20260505161511 51 191 5.0 15.0 0.00 0.00 0.00 54 1014.4
20260505161010 52 281 4.0 9.0 0.00 0.00 0.00 55 1014.3
20260505160546 52 220 3.0 10.0 0.00 0.00 0.00 56 1014.4
20260505153046 50 128 11.0 20.0 0.00 0.00 0.00 60 1014.1
20260505152511 51 136 13.0 15.0 0.00 0.00 0.00 58 1014.1
20260505152011 51 135 7.0 13.0 0.00 0.00 0.00 57 1014.2
20260505151547 51 126 8.0 10.0 0.00 0.00 0.00 57 1014.1
20260505151010 50 107 4.0 6.0 0.00 0.00 0.00 57 1014.0
20260505150546 50 116 7.0 11.0 0.00 0.00 0.00 59 1014.2
20260505140546 46 255 3.0 11.0 0.00 0.00 0.00 64 1014.0
20260505125010 45 106 3.0 7.0 0.00 0.00 0.00 61 1013.8
20260505124547 45 125 5.0 7.0 0.00 0.00 0.00 61 1013.8
20260505124046 45 79 2.0 7.0 0.00 0.00 0.00 60 1013.6
20260505123527 45 128 6.0 8.0 0.00 0.00 0.00 60 1013.7
20260505123047 45 122 5.0 7.0 0.00 0.00 0.00 60 1013.7
20260505122546 45 98 3.0 9.0 0.00 0.00 0.00 60 1013.5
20260505122046 45 97 2.0 5.0 0.00 0.00 0.00 60 1013.7
20260505121547 45 168 4.0 7.0 0.00 0.00 0.00 60 1013.6
20260505121047 44 165 3.0 7.0 0.00 0.00 0.00 61 1013.7
20260505120510 44 186 2.0 5.0 0.00 0.00 0.00 63 1013.5
20260505120010 44 154 0.0 4.0 0.00 0.00 0.00 62 1013.3
20260505115547 44 164 3.0 7.0 0.00 0.00 0.00 61 1013.6
20260505115011 44 132 4.0 6.0 0.00 0.00 0.00 62 1013.7
20260505114546 44 113 3.0 9.0 0.00 0.00 0.00 62 1013.7
20260505114046 44 186 3.0 5.0 0.00 0.00 0.00 64 1013.8
20260505113547 44 99 3.0 6.0 0.00 0.00 0.00 64 1013.8
20260505113010 43 108 3.0 3.0 0.00 0.00 0.00 66 1013.8
20260505112546 44 160 2.0 4.0 0.00 0.00 0.00 65 1013.8
20260505112046 44 194 2.0 6.0 0.00 0.00 0.00 66 1013.9
20260505111510 44 192 2.0 3.0 0.00 0.00 0.00 65 1013.7
20260505111047 45 89 2.0 3.0 0.00 0.00 0.00 63 1013.7
20260505110546 45 105 5.0 9.0 0.00 0.00 0.00 62 1013.8
20260505102011 43 76 2.0 3.0 0.00 0.00 0.00 68 1014.1
20260505101546 44 43 3.0 5.0 0.00 0.00 0.00 68 1014.1
20260505101011 43 73 3.0 3.0 0.00 0.00 0.00 68 1014.1
20260505100546 43 37 2.0 3.0 0.00 0.00 0.00 68 1014.3
20260505100046 44 353 0.0 2.0 0.00 0.00 0.00 67 1014.2
20260505095547 44 69 3.0 4.0 0.00 0.00 0.00 67 1014.3
20260505095011 44 123 3.0 3.0 0.00 0.00 0.00 66 1014.3
20260505094546 44 31 4.0 5.0 0.00 0.00 0.00 67 1014.4
20260505094047 44 163 2.0 4.0 0.00 0.00 0.00 66 1014.3
20260505092046 43 66 2.0 2.0 0.00 0.00 0.00 66 1014.6
20260505091546 44 138 4.0 4.0 0.00 0.00 0.00 65 1014.7
20260505091047 44 267 2.0 3.0 0.00 0.00 0.00 64 1014.7
20260505090546 45 106 3.0 5.0 0.00 0.00 0.00 63 1014.7
20260505090011 46 105 3.0 7.0 0.00 0.00 0.00 61 1015.1
20260505085547 46 150 6.0 7.0 0.00 0.00 0.00 61 1015.1
20260505085046 46 134 5.0 7.0 0.00 0.00 0.00 61 1015.2
20260505084511 46 123 3.0 12.0 0.00 0.00 0.00 60 1015.2
20260505084010 46 139 9.0 10.0 0.00 0.00 0.00 61 1015.1
20260505083527 46 121 4.0 6.0 0.00 0.00 0.00 62 1015.3
20260505083047 45 208 6.0 9.0 0.00 0.00 0.00 62 1015.3
20260505082546 44 188 5.0 6.0 0.00 0.00 0.00 64 1015.2
20260505082046 45 118 4.0 6.0 0.00 0.00 0.00 64 1015.3
20260505081547 46 115 4.0 9.0 0.00 0.00 0.00 62 1015.3
20260505081010 46 129 3.0 8.0 0.00 0.00 0.00 63 1015.3
20260505080546 45 182 6.0 10.0 0.00 0.00 0.00 64 1015.1
20260505080046 44 109 3.0 5.0 0.00 0.00 0.00 67 1015.2
20260505074010 44 356 3.0 4.0 0.00 0.00 0.00 70 1015.1
20260505073547 45 63 4.0 5.0 0.00 0.00 0.00 69 1015.2
20260505073047 44 50 3.0 3.0 0.00 0.00 0.00 70 1015.3
20260505072546 45 48 3.0 3.0 0.00 0.00 0.00 69 1015.2
20260505072010 45 37 0.0 5.0 0.00 0.00 0.00 68 1015.3
20260505071547 46 87 3.0 4.0 0.00 0.00 0.00 67 1015.3
20260505071046 46 60 2.0 5.0 0.00 0.00 0.00 67 1015.1
20260505070516 45 113 4.0 4.0 0.00 0.00 0.00 69 1015.3
20260505070005 46 89 2.0 3.0 0.00 0.00 0.00 68 1015.3
20260505065547 46 100 0.0 2.0 0.00 0.00 0.00 66 1015.4
20260505065047 46 14 4.0 4.0 0.00 0.00 0.00 67 1015.2
20260505064546 46 63 3.0 5.0 0.00 0.00 0.00 67 1015.2
20260505064046 46 54 0.0 2.0 0.00 0.00 0.00 66 1015.4
20260505063547 47 102 5.0 6.0 0.00 0.00 0.00 65 1015.4
20260505063046 47 127 4.0 5.0 0.00 0.00 0.00 63 1015.7
20260505062546 47 106 5.0 6.0 0.00 0.00 0.00 63 1015.5
20260505062047 47 199 2.0 7.0 0.00 0.00 0.00 61 1015.3
20260505061547 47 144 3.0 5.0 0.00 0.00 0.00 61 1015.2
20260505061012 48 137 6.0 8.0 0.00 0.00 0.00 60 1015.3
20260505060546 48 138 5.0 7.0 0.00 0.00 0.00 60 1015.4
20260505060011 48 46 0.0 4.0 0.00 0.00 0.00 58 1015.6
20260505055546 48 143 5.0 7.0 0.00 0.00 0.00 58 1015.6
20260505055046 48 192 2.0 5.0 0.00 0.00 0.00 56 1015.7
20260505054547 48 68 4.0 4.0 0.00 0.00 0.00 56 1015.6
20260505054012 48 117 2.0 5.0 0.00 0.00 0.00 55 1015.8
20260505053547 48 113 6.0 6.0 0.00 0.00 0.00 54 1015.9
20260505053047 49 187 10.0 13.0 0.00 0.00 0.00 54 1015.8
20260505052511 49 135 7.0 16.0 0.00 0.00 0.00 52 1015.8
20260505052046 49 206 5.0 14.0 0.00 0.00 0.00 52 1015.7
20260505051547 49 130 2.0 10.0 0.00 0.00 0.00 51 1015.5
20260505051011 49 128 4.0 5.0 0.00 0.00 0.00 50 1015.6
20260505050547 49 147 5.0 11.0 0.00 0.00 0.00 49 1015.7